STARLINK-3747, 52306

Orbit data source: Space-Track

STARLINK-3747, 52306 is a payload satellite owned by SpaceX/Seattle (US) in LEO that was launched on Thu, 21 Apr 2022 UTC via an FALCON 9 launch vehicle from the Air Force Eastern Test Range (AFETR). Payload-class satellites include a variety of spacecraft equipped with specific instruments for various scientific and technological missions. These include communications satellites like Starlink; space stations such as the ISS; scientific satellites like the Hubble; Earth observation satellites from companies like Planet Labs, Umbra, and HawkEye 360; GPS; miniature CubeSats for education and research; and military/defense satellites.

Loading next visibility...
Identifier
52306, 2022-041AX
Orbit
LEO
Country
Flag of USUS
Related business
Manufacturer
SpaceX/Seattle
Mission
Operational Commercial Communications
Bus & Motor
STARLINK, Unknown motor
Mass
297 kg wet, ~275 kg dry
Launch date (UTC)
2022-04-21 (4 years ago)
Launch vehicle
FALCON 9
Launch site
Air Force Eastern Test Range (AFETR)
Object type
Payload
Rocket body
Debris
Shape & HBR
Box + 1 Pan, 10.1 m
Radar Cross Section
11.087 m², Large (>1 m²)

Expand to show TLE details & history
Last TLE update: 12 hours ago

TLE from 12 hours ago
0 STARLINK-3747
1 52306U 22041AX  26236.82346948  .00000210  00000-0  16933-4 0  9997
2 52306  53.1615  46.1178 0001006  80.6587 279.4530 15.35402360241351
Epoch: 2026-08-24T19:45Z
TLE epoch observation values (Epoch: 2026-08-24T19:45:47.763Z)
Latitude
0.00002°
Longitude
136.56916°
Altitude
460.515 km
Speed
7.638 km/s
True Right ascension
03h 04m 28s
True Declination
0° 00' 00"
Sunlit
Object was in daylight at epoch
Visualization orbit readout
Latitude
Unknown
Longitude
Unknown
Altitude
Unknown
Speed
Unknown
Apparent Right ascension
Unknown
Apparent Declination
Unknown
Sunlit
N/A
Visualization observer readout
Local Sidereal Time
23:02:01
Azimuth
Unknown
Elevation
Unknown
Doppler factor
Unknown
Orbital elements
Apogee altitude
460.67 km
Perigee altitude
459.294 km
Semi-major axis
6,838.119 km
Eccentricity
0.0001
Inclination
53.1615°
RAAN
46.1178°
Arg. of periapsis
80.6587°
True anomaly
279.44163°
Mean anomaly
279.453°
Eccentric anomaly
279.44731°
Mean motion
3.83829 °/min
Orbital period
93.79 mins
BSTAR
0.000016933
Loading maneuver chart data...
Computing Atmospheric mass density...

Documentation

Showing up to 5 results
|